Location: Unspecified
(0.0000°N, 0.0000°E)
Time: 15:40:34
(UTC+00:00)

N. Korean satellite - Pass Details

Date: 13 March 2018
Orbit: 459 x 511 km, 97.2° (Epoch: 22 June)

Event Time Altitude Azimuth Distance (km) Brightness Sun altitude
Rises 05:27:08 0° 43° (NE) 2,595 10.9 -10.6°
Reaches altitude 10° 05:30:04 10° 69° (ENE) 1,706 10.5 -9.9°
Maximum altitude 05:32:00 14° 101° (E) 1,476 10.5 -9.4°
Drops below altitude 10° 05:33:55 10° 133° (SE) 1,696 10.1 -8.9°
Sets 05:36:49 0° 159° (SSE) 2,569 10.6 -8.2°
